| time (UTC) | temp C | wind direction | speed KPH | gust KPH | rain 1hr cm | rain 24hr cm | rain mn cm | humidity % | barometer mb |
| 20260906081006 | -17 | 270 | 1.6 | 4.8 | 0.00 | 0.00 | 0.00 | 99 | 986.6 |
| 20260906080506 | -17 | 273 | 3.2 | 4.8 | 0.00 | 0.00 | 0.00 | 99 | 986.6 |
| 20260906075005 | -17 | 225 | 0.0 | 4.8 | 0.00 | 0.00 | 0.00 | 99 | 986.6 |
| 20260906074505 | -17 | 225 | 0.0 | 4.8 | 0.00 | 0.00 | 0.00 | 99 | 986.6 |
| 20260906074004 | -17 | 225 | 0.0 | 4.8 | 0.00 | 0.00 | 0.00 | 99 | 986.6 |
| 20260906073504 | -17 | 225 | 0.0 | 4.8 | 0.00 | 0.00 | 0.00 | 99 | 986.6 |
| 20260906073003 | -17 | 180 | 1.6 | 4.8 | 0.00 | 0.00 | 0.00 | 99 | 986.6 |
| 20260906072003 | -17 | 225 | 1.6 | 3.2 | 0.00 | 0.00 | 0.00 | 99 | 986.6 |
| 20260906071502 | -17 | 270 | 1.6 | 3.2 | 0.00 | 0.00 | 0.00 | 99 | 986.6 |
| 20260906071002 | -17 | 225 | 0.0 | 3.2 | 0.00 | 0.00 | 0.00 | 99 | 986.6 |
| 20260906070502 | -17 | 225 | 1.6 | 3.2 | 0.00 | 0.00 | 0.00 | 99 | 986.6 |
| 20260906070001 | -17 | 225 | 1.6 | 3.2 | 0.00 | 0.00 | 0.00 | 99 | 986.6 |
| 20260906065501 | -17 | 180 | 1.6 | 3.2 | 0.00 | 0.00 | 0.00 | 99 | 986.6 |
| 20260906065000 | -17 | 225 | 1.6 | 3.2 | 0.00 | 0.00 | 0.00 | 99 | 986.6 |
| 20260906064000 | -17 | 180 | 1.6 | 3.2 | 0.00 | 0.00 | 0.00 | 99 | 986.6 |
| 20260906063459 | -17 | 225 | 1.6 | 3.2 | 0.00 | 0.00 | 0.00 | 99 | 986.6 |
| 20260906062959 | -17 | 135 | 1.6 | 3.2 | 0.00 | 0.00 | 0.00 | 99 | 986.6 |
| 20260906062459 | -17 | 180 | 1.6 | 3.2 | 0.00 | 0.00 | 0.00 | 99 | 986.6 |
| 20260906061958 | -17 | 180 | 1.6 | 3.2 | 0.00 | 0.00 | 0.00 | 99 | 986.6 |
| 20260906061458 | -17 | 180 | 1.6 | 3.2 | 0.00 | 0.00 | 0.00 | 99 | 986.6 |
| 20260906060958 | -17 | 180 | 1.6 | 3.2 | 0.00 | 0.00 | 0.00 | 99 | 986.6 |
| 20260906060457 | -17 | 225 | 1.6 | 3.2 | 0.00 | 0.00 | 0.00 | 99 | 986.6 |
| 20260906055957 | -17 | 225 | 1.6 | 3.2 | 0.00 | 0.00 | 0.00 | 99 | 986.6 |
| 20260906055456 | -17 | 225 | 1.6 | 3.2 | 0.00 | 0.00 | 0.00 | 99 | 986.6 |
| 20260906054956 | -17 | 275 | 3.2 | 3.2 | 0.00 | 0.00 | 0.00 | 99 | 986.6 |
| 20260906054456 | -17 | 270 | 3.2 | 3.2 | 0.00 | 0.00 | 0.00 | 99 | 986.6 |
| 20260906053955 | -17 | 271 | 1.6 | 3.2 | 0.00 | 0.00 | 0.00 | 99 | 986.6 |
| 20260906053455 | -17 | 215 | 0.0 | 3.2 | 0.00 | 0.00 | 0.00 | 99 | 986.6 |
| 20260906052954 | -17 | 180 | 0.0 | 6.4 | 0.00 | 0.00 | 0.00 | 99 | 986.6 |
| 20260906052454 | -17 | 225 | 3.2 | 6.4 | 0.00 | 0.00 | 0.00 | 99 | 986.6 |
| 20260906051954 | -17 | 225 | 0.0 | 6.4 | 0.00 | 0.00 | 0.00 | 99 | 986.6 |
| 20260906051453 | -17 | 225 | 0.0 | 6.4 | 0.00 | 0.00 | 0.00 | 99 | 986.6 |
| 20260906050453 | -17 | 165 | 1.6 | 6.4 | 0.00 | 0.00 | 0.00 | 99 | 986.6 |
| 20260906045952 | -17 | 180 | 1.6 | 6.4 | 0.00 | 0.00 | 0.00 | 99 | 986.6 |
| 20260906045452 | -17 | 180 | 1.6 | 6.4 | 0.00 | 0.00 | 0.00 | 99 | 986.6 |
| 20260906044951 | -17 | 180 | 1.6 | 6.4 | 0.00 | 0.00 | 0.00 | 99 | 986.6 |
| 20260906044451 | -17 | 180 | 0.0 | 6.4 | 0.00 | 0.00 | 0.00 | 99 | 985.6 |
| 20260906043951 | -17 | 180 | 1.6 | 6.4 | 0.00 | 0.00 | 0.00 | 99 | 985.6 |
| 20260906043450 | -17 | 270 | 3.2 | 6.4 | 0.00 | 0.00 | 0.00 | 99 | 985.6 |
| 20260906042450 | -17 | 225 | 1.6 | 9.7 | 0.00 | 0.00 | 0.00 | 99 | 985.6 |
| 20260906041949 | -17 | 225 | 3.2 | 9.7 | 0.00 | 0.00 | 0.00 | 99 | 985.6 |
| 20260906041449 | -17 | 225 | 1.6 | 9.7 | 0.00 | 0.00 | 0.00 | 99 | 985.6 |
| 20260906040949 | -17 | 225 | 1.6 | 9.7 | 0.00 | 0.00 | 0.00 | 99 | 985.6 |
| 20260906040448 | -17 | 225 | 1.6 | 9.7 | 0.00 | 0.00 | 0.00 | 99 | 985.6 |
| 20260906035948 | -17 | 225 | 1.6 | 9.7 | 0.00 | 0.00 | 0.00 | 99 | 985.6 |
| 20260906035447 | -17 | 270 | 1.6 | 9.7 | 0.00 | 0.00 | 0.00 | 99 | 985.6 |
| 20260906034947 | -17 | 225 | 1.6 | 9.7 | 0.00 | 0.00 | 0.00 | 99 | 985.6 |
| 20260906034447 | -17 | 270 | 1.6 | 9.7 | 0.00 | 0.00 | 0.00 | 99 | 985.6 |
| 20260906033946 | -17 | 225 | 3.2 | 9.7 | 0.00 | 0.00 | 0.00 | 99 | 985.6 |
| 20260906032945 | -17 | 225 | 3.2 | 9.7 | 0.00 | 0.00 | 0.00 | 99 | 985.6 |
| 20260906032445 | -17 | 270 | 3.2 | 6.4 | 0.00 | 0.00 | 0.00 | 99 | 985.6 |
| 20260906031945 | -17 | 270 | 3.2 | 11.3 | 0.00 | 0.00 | 0.00 | 99 | 985.6 |
| 20260906031444 | -17 | 225 | 4.8 | 11.3 | 0.00 | 0.00 | 0.00 | 99 | 985.6 |
| 20260906030944 | -17 | 225 | 1.6 | 11.3 | 0.00 | 0.00 | 0.00 | 99 | 985.6 |
| 20260906030444 | -17 | 270 | 1.6 | 11.3 | 0.00 | 0.00 | 0.00 | 99 | 985.6 |
| 20260906025943 | -17 | 315 | 1.6 | 11.3 | 0.00 | 0.00 | 0.00 | 99 | 985.6 |
| 20260906025443 | -17 | 180 | 1.6 | 11.3 | 0.00 | 0.00 | 0.00 | 99 | 985.6 |
| 20260906024942 | -17 | 180 | 3.2 | 11.3 | 0.00 | 0.00 | 0.00 | 99 | 985.6 |
| 20260906024442 | -17 | 270 | 4.8 | 11.3 | 0.00 | 0.00 | 0.00 | 99 | 985.6 |
| 20260906023942 | -17 | 270 | 3.2 | 11.3 | 0.00 | 0.00 | 0.00 | 99 | 985.6 |
| 20260906023441 | -17 | 180 | 4.8 | 11.3 | 0.00 | 0.00 | 0.00 | 99 | 985.6 |
| 20260906022941 | -17 | 135 | 3.2 | 11.3 | 0.00 | 0.00 | 0.00 | 99 | 984.6 |
| 20260906022441 | -17 | 225 | 6.4 | 11.3 | 0.00 | 0.00 | 0.00 | 99 | 985.6 |
| 20260906021940 | -17 | 225 | 4.8 | 8.0 | 0.00 | 0.00 | 0.00 | 99 | 985.6 |
| 20260906021440 | -17 | 225 | 3.2 | 8.0 | 0.00 | 0.00 | 0.00 | 99 | 985.6 |
| 20260906020939 | -17 | 225 | 3.2 | 8.0 | 0.00 | 0.00 | 0.00 | 99 | 985.6 |
| 20260906020439 | -17 | 180 | 3.2 | 6.4 | 0.00 | 0.00 | 0.00 | 99 | 985.6 |
| 20260906015438 | -17 | 180 | 4.8 | 6.4 | 0.00 | 0.00 | 0.00 | 99 | 985.6 |
| 20260906014938 | -17 | 180 | 1.6 | 6.4 | 0.00 | 0.00 | 0.00 | 99 | 984.6 |
| 20260906014437 | -17 | 315 | 0.0 | 0.0 | 0.00 | 0.00 | 0.00 | 99 | 984.6 |
| 20260906013937 | -17 | 225 | 3.2 | 11.3 | 0.00 | 0.00 | 0.00 | 99 | 984.6 |
| 20260906012936 | -17 | 225 | 4.8 | 11.3 | 0.00 | 0.00 | 0.00 | 99 | 984.6 |
| 20260906012436 | -17 | 225 | 4.8 | 11.3 | 0.00 | 0.00 | 0.00 | 99 | 984.6 |
| 20260906011435 | -17 | 270 | 3.2 | 11.3 | 0.00 | 0.00 | 0.00 | 99 | 984.6 |
| 20260906010935 | -17 | 225 | 1.6 | 11.3 | 0.00 | 0.00 | 0.00 | 99 | 984.6 |
| 20260906010434 | -17 | 270 | 1.6 | 11.3 | 0.00 | 0.00 | 0.00 | 99 | 983.6 |
| 20260906005934 | -17 | 180 | 1.6 | 11.3 | 0.00 | 0.00 | 0.00 | 99 | 983.6 |
| 20260906005433 | -17 | 225 | 3.2 | 11.3 | 0.00 | 0.00 | 0.00 | 99 | 983.6 |
| 20260906004934 | -17 | 270 | 3.2 | 11.3 | 0.00 | 0.00 | 0.00 | 99 | 983.6 |
| 20260906004433 | -17 | 180 | 8.0 | 11.3 | 0.00 | 0.00 | 0.00 | 99 | 983.6 |
| 20260906003932 | -17 | 225 | 3.2 | 11.3 | 0.00 | 0.00 | 0.00 | 96 | 983.6 |
| 20260906003432 | -17 | 180 | 4.8 | 11.3 | 0.00 | 0.00 | 0.00 | 97 | 983.6 |
| 20260906002931 | -17 | 180 | 1.6 | 4.8 | 0.00 | 0.00 | 0.00 | 99 | 983.6 |
| 20260906002431 | -17 | 180 | 1.6 | 4.8 | 0.00 | 0.00 | 0.00 | 99 | 983.6 |
| 20260906001931 | -17 | 180 | 3.2 | 4.8 | 0.00 | 0.00 | 0.00 | 99 | 983.6 |
| 20260906001430 | -17 | 180 | 1.6 | 3.2 | 0.00 | 0.00 | 0.00 | 99 | 983.6 |
| 20260906000930 | -17 | 180 | 1.6 | 3.2 | 0.00 | 0.00 | 0.00 | 99 | 983.6 |
| 20260906000430 | -17 | 135 | 1.6 | 3.2 | 0.00 | 0.00 | 0.00 | 97 | 983.6 |
| 20260905235929 | -17 | 180 | 1.6 | 1.6 | 0.00 | 0.00 | 0.00 | 96 | 983.6 |
| 20260905235429 | -17 | 135 | 1.6 | 4.8 | 0.00 | 0.00 | 0.00 | 94 | 983.6 |
| 20260905234929 | -17 | 180 | 1.6 | 4.8 | 0.00 | 0.00 | 0.00 | 93 | 983.6 |
| 20260905234428 | -17 | 225 | 0.0 | 4.8 | 0.00 | 0.00 | 0.00 | 92 | 983.6 |
| 20260905233927 | -17 | 180 | 1.6 | 4.8 | 0.00 | 0.00 | 0.00 | 91 | 983.6 |
| 20260905233427 | -17 | 180 | 1.6 | 4.8 | 0.00 | 0.00 | 0.00 | 89 | 983.6 |
| 20260905232927 | -17 | 180 | 1.6 | 4.8 | 0.00 | 0.00 | 0.00 | 87 | 983.6 |
| 20260905232426 | -17 | 225 | 0.0 | 4.8 | 0.00 | 0.00 | 0.00 | 86 | 983.6 |
| 20260905231926 | -17 | 180 | 1.6 | 4.8 | 0.00 | 0.00 | 0.00 | 86 | 983.6 |
| 20260905231426 | -17 | 180 | 1.6 | 4.8 | 0.00 | 0.00 | 0.00 | 84 | 983.6 |
| 20260905230925 | -17 | 225 | 1.6 | 4.8 | 0.00 | 0.00 | 0.00 | 84 | 983.6 |
| 20260905230425 | -17 | 180 | 1.6 | 4.8 | 0.00 | 0.00 | 0.00 | 84 | 983.6 |
| 20260905225925 | -17 | 180 | 1.6 | 4.8 | 0.00 | 0.00 | 0.00 | 80 | 983.6 |
| 20260905225424 | -17 | 135 | 1.6 | 3.2 | 0.00 | 0.00 | 0.00 | 78 | 983.6 |
| 20260905224924 | -17 | 180 | 1.6 | 3.2 | 0.00 | 0.00 | 0.00 | 79 | 983.6 |
| 20260905224423 | -17 | 180 | 1.6 | 3.2 | 0.00 | 0.00 | 0.00 | 79 | 983.6 |
| 20260905223923 | -17 | 225 | 1.6 | 3.2 | 0.00 | 0.00 | 0.00 | 78 | 983.6 |
| 20260905223422 | -17 | 315 | 0.0 | 3.2 | 0.00 | 0.00 | 0.00 | 76 | 983.6 |
| 20260905222922 | -17 | 270 | 1.6 | 3.2 | 0.00 | 0.00 | 0.00 | 78 | 983.6 |
| 20260905222422 | -17 | 315 | 1.6 | 3.2 | 0.00 | 0.00 | 0.00 | 78 | 983.6 |
| 20260905221921 | -17 | 315 | 1.6 | 3.2 | 0.00 | 0.00 | 0.00 | 72 | 983.6 |
| 20260905221421 | -17 | 315 | 1.6 | 3.2 | 0.00 | 0.00 | 0.00 | 77 | 983.6 |
| 20260905220920 | -17 | 430 | 1.6 | 14.5 | 0.00 | 0.00 | 0.00 | 82 | 983.6 |
| 20260905220420 | -17 | 315 | 1.6 | 14.5 | 0.00 | 0.00 | 0.00 | 86 | 983.6 |
| 20260905215919 | -17 | 315 | 3.2 | 14.5 | 0.00 | 0.00 | 0.00 | 85 | 983.6 |
| 20260905215419 | -17 | 315 | 1.6 | 14.5 | 0.00 | 0.00 | 0.00 | 81 | 983.6 |
| 20260905214918 | -17 | 315 | 1.6 | 14.5 | 0.00 | 0.00 | 0.00 | 84 | 983.6 |
| 20260905212917 | -17 | 315 | 1.6 | 14.5 | 0.00 | 0.00 | 0.00 | 84 | 982.6 |
| 20260905212416 | -17 | 270 | 3.2 | 14.5 | 0.00 | 0.00 | 0.00 | 78 | 982.6 |
| 20260905211916 | -17 | 135 | 1.6 | 14.5 | 0.00 | 0.00 | 0.00 | 75 | 982.6 |
| 20260905211415 | -17 | 225 | 6.4 | 14.5 | 0.00 | 0.00 | 0.00 | 71 | 982.6 |
| 20260905210915 | -17 | 165 | 4.8 | 8.0 | 0.00 | 0.00 | 0.00 | 60 | 982.6 |
| 20260905210414 | 37 | 135 | 3.2 | 8.0 | 0.00 | 0.00 | 0.00 | 47 | 982.6 |
| 20260905205914 | -17 | 315 | 0.0 | 8.0 | 0.00 | 0.00 | 0.00 | 53 | 982.6 |
| 20260905204913 | -17 | 135 | 3.2 | 8.0 | 0.00 | 0.00 | 0.00 | 48 | 982.6 |
| 20260905204413 | -17 | 135 | 3.2 | 8.0 | 0.00 | 0.00 | 0.00 | 50 | 982.6 |
| 20260905203412 | -17 | 180 | 4.8 | 8.0 | 0.00 | 0.00 | 0.00 | 56 | 982.6 |
| 20260905200909 | -17 | 180 | 1.6 | 6.4 | 0.00 | 0.00 | 0.00 | 49 | 983.6 |
| 20260905194908 | -17 | 135 | 3.2 | 9.7 | 0.00 | 0.00 | 0.00 | 57 | 983.6 |
| 20260905193907 | -17 | 135 | 1.6 | 9.7 | 0.00 | 0.00 | 0.00 | 59 | 983.6 |
| 20260905193406 | -17 | 165 | 3.2 | 9.7 | 0.00 | 0.00 | 0.00 | 64 | 983.6 |
| 20260905191905 | -17 | 135 | 1.6 | 9.7 | 0.00 | 0.00 | 0.00 | 69 | 983.6 |
| 20260905191405 | -17 | 165 | 1.6 | 9.7 | 0.00 | 0.00 | 0.00 | 65 | 983.6 |
| 20260905190904 | -17 | 135 | 4.8 | 9.7 | 0.00 | 0.00 | 0.00 | 64 | 983.6 |
| 20260905190404 | -17 | 135 | 3.2 | 9.7 | 0.00 | 0.00 | 0.00 | 64 | 983.6 |
| 20260905185403 | -17 | 180 | 3.2 | 9.7 | 0.00 | 0.00 | 0.00 | 53 | 983.6 |
| 20260905183902 | -17 | 135 | 4.8 | 9.7 | 0.00 | 0.00 | 0.00 | 54 | 983.6 |
| 20260905183401 | -17 | 135 | 3.2 | 9.7 | 0.00 | 0.00 | 0.00 | 52 | 983.6 |
| 20260905182901 | -17 | 135 | 1.6 | 9.7 | 0.00 | 0.00 | 0.00 | 54 | 984.6 |
| 20260905181900 | -17 | 180 | 3.2 | 9.7 | 0.00 | 0.00 | 0.00 | 55 | 984.6 |
| 20260905163851 | -17 | 870 | 3.2 | 8.0 | 0.00 | 0.00 | 0.00 | 68 | 985.6 |
| 20260905161849 | -17 | 869 | 6.4 | 11.3 | 0.00 | 0.00 | 0.00 | 63 | 985.6 |
| 20260905145842 | -17 | 315 | 3.2 | 8.0 | 0.00 | 0.00 | 0.00 | 74 | 985.6 |
| 20260905124831 | -17 | 315 | 3.2 | 12.9 | 0.00 | 0.00 | 0.00 | 97 | 985.6 |
| 20260905123830 | -17 | 429 | 4.8 | 9.7 | 0.00 | 0.00 | 0.00 | 99 | 985.6 |
| 20260905122829 | -17 | 315 | 6.4 | 9.7 | 0.00 | 0.00 | 0.00 | 99 | 985.6 |
| 20260905121329 | -17 | 315 | 4.8 | 6.4 | 0.00 | 0.00 | 0.00 | 99 | 985.6 |
| 20260905115827 | -17 | 315 | 1.6 | 9.7 | 0.00 | 0.00 | 0.00 | 99 | 985.6 |
| 20260905114826 | -17 | 315 | 3.2 | 9.7 | 0.00 | 0.00 | 0.00 | 99 | 985.6 |
| 20260905114326 | -17 | 315 | 3.2 | 9.7 | 0.00 | 0.00 | 0.00 | 99 | 985.6 |
| 20260905113826 | -17 | 315 | 1.6 | 9.7 | 0.00 | 0.00 | 0.00 | 99 | 985.6 |
| 20260905113325 | -17 | 315 | 3.2 | 9.7 | 0.00 | 0.00 | 0.00 | 99 | 985.6 |
| 20260905112825 | -17 | 315 | 3.2 | 9.7 | 0.00 | 0.00 | 0.00 | 99 | 985.6 |
| 20260905112325 | -17 | 315 | 4.8 | 9.7 | 0.00 | 0.00 | 0.00 | 99 | 985.6 |
| 20260905111824 | -17 | 315 | 4.8 | 9.7 | 0.00 | 0.00 | 0.00 | 99 | 984.6 |
| 20260905111324 | -17 | 315 | 3.2 | 9.7 | 0.00 | 0.00 | 0.00 | 99 | 984.6 |
| 20260905110823 | -17 | 315 | 8.0 | 8.0 | 0.00 | 0.00 | 0.00 | 99 | 984.6 |
| 20260905110323 | -17 | 427 | 6.4 | 12.9 | 0.00 | 0.00 | 0.00 | 99 | 984.6 |
| 20260905105822 | -17 | 315 | 4.8 | 12.9 | 0.00 | 0.00 | 0.00 | 99 | 984.6 |
| 20260905104822 | -17 | 315 | 6.4 | 12.9 | 0.00 | 0.00 | 0.00 | 99 | 984.6 |
| 20260905104321 | -17 | 315 | 4.8 | 12.9 | 0.00 | 0.00 | 0.00 | 99 | 984.6 |
| 20260905103821 | -17 | 315 | 8.0 | 12.9 | 0.00 | 0.00 | 0.00 | 99 | 985.6 |
| 20260905103321 | -17 | 270 | 3.2 | 12.9 | 0.00 | 0.00 | 0.00 | 99 | 985.6 |
| 20260905102820 | -17 | 211 | 1.6 | 12.9 | 0.00 | 0.00 | 0.00 | 99 | 985.6 |
| 20260905102320 | -17 | 315 | 3.2 | 12.9 | 0.00 | 0.00 | 0.00 | 99 | 985.6 |
| 20260905101819 | -17 | 271 | 4.8 | 12.9 | 0.00 | 0.00 | 0.00 | 99 | 985.6 |
| 20260905101319 | -17 | 270 | 3.2 | 12.9 | 0.00 | 0.00 | 0.00 | 99 | 985.6 |
| 20260905100819 | -17 | 270 | 3.2 | 12.9 | 0.00 | 0.00 | 0.00 | 99 | 985.6 |
| 20260905100318 | -17 | 270 | 4.8 | 9.7 | 0.00 | 0.00 | 0.00 | 99 | 984.6 |
| 20260905095818 | -17 | 225 | 4.8 | 8.0 | 0.00 | 0.00 | 0.00 | 99 | 984.6 |
| 20260905095318 | -17 | 315 | 1.6 | 3.2 | 0.00 | 0.00 | 0.00 | 99 | 984.6 |
| 20260905084311 | -17 | 180 | 1.6 | 1.6 | 0.00 | 0.00 | 0.00 | 99 | 983.6 |
| 20260905081809 | -17 | 135 | 0.0 | 4.8 | 0.00 | 0.00 | 0.00 | 99 | 983.6 |
| 20260905081309 | -17 | 135 | 1.6 | 4.8 | 0.00 | 0.00 | 0.00 | 99 | 983.6 |